www.pogodaiklimat.ru
Время
и дата
18:51 30.12
19:15 30.12
19:36 30.12
19:51 30.12
20:00 30.12
20:33 30.12
20:51 30.12
21:51 30.12
22:09 30.12
22:41 30.12
22:51 30.12
23:21 30.12
23:38 30.12
23:51 30.12
00:02 31.12
00:21 31.12
00:30 31.12
00:51 31.12
01:51 31.12
02:23 31.12
02:51 31.12
03:51 31.12
04:51 31.12
04:59 31.12
05:16 31.12
05:27 31.12
05:38 31.12
05:51 31.12
05:58 31.12
06:51 31.12
07:23 31.12
07:51 31.12
08:51 31.12
09:38 31.12
09:51 31.12
10:02 31.12
10:46 31.12
10:51 31.12
10:54 31.12
11:51 31.12
12:51 31.12
13:51 31.12
14:51 31.12
15:02 31.12
15:51 31.12
16:35 31.12
16:51 31.12
17:51 31.12
Ветер
(напр.,м/с)
Видим. Явления Облачность Т
(С)
Тd
(С)
f
(%)
Тe
(С)
Тes
(С)
Комфортность P
(гПа)
Po
(гПа)
Тmin
(С)
Tmax
(С)
R
(мм)
R24
(мм)
S
(см)
штиль 0 800 м туман ?/? +10.0 +10.0 100 +9 +9 1013.4 1012.5 +9.4 +10.0
штиль 0 400 м туман ?/? +10.0 +10.0 100 +9 +9 1012.5
В 1 800 м туман ?/? +10.0 +10.0 100 +8 +8 1012.5
СВ 1 800 м туман ?/? +10.0 +10.0 100 +8 +8 1013.3 1012.5
СВ 1 400 м туман ?/? +10.0 +10.0 100 +8 +8 1012.1
С 1 400 м туман н/о +10.0 +10.0 100 +8 +8 1011.8
СВ 1 400 м туман ?/? +10.0 +10.0 100 +8 +8 1013.0 1012.1
штиль 0 400 м туман ?/? +10.0 +10.0 100 +9 +9 1013.4 1012.5
штиль 0 800 м туман ?/? +10.0 +10.0 100 +9 +9 1012.5
штиль 0 2 км дымка 10/10 60 м +10.0 +10.0 100 +9 +9 1012.5
штиль 0 3 км дымка 10/10 60 м +10.0 +10.0 100 +9 +9 1013.5 1012.5
СВ 1 6 км дымка 10/10 60 м +10.0 +10.0 100 +8 +8 1012.1
С 1 4 км дымка 10/10 60 м +10.0 +10.0 100 +8 +8 1012.1
С 1 5 км дымка 10/10 60 м +10.0 +10.0 100 +8 +8 1013.3 1012.1
С 1 4 км дымка 10/10 60 м +10.0 +10.0 100 +8 +8 1012.1
С 1 2 км дымка 10/10 60 м +9.4 +9.4 100 +8 +8 1012.1
штиль 0 1 км дымка ?/? +9.4 +9.4 100 +8 +8 1012.1
СВ 1 400 м туман ?/? +9.4 +9.4 100 +8 +8 1012.7 1011.8 +9.4 +10.0
СВ 1 400 м туман ?/? +10.0 +10.0 100 +8 +8 1012.7 1011.8
В 1 800 м слабый дождь, туман ?/? +10.0 +10.0 100 +8 +8 1012.1
С 1 800 м туман ?/? +10.0 +10.0 100 +8 +8 1013.0 1012.1
С 1 400 м туман ?/? +10.0 +10.0 100 +8 +8 1013.3 1012.5 0.3
С 1 400 м туман ?/? +10.0 +10.0 100 +8 +8 1013.1 1012.1
С 1 800 м туман ?/? +10.0 +10.0 100 +8 +8 1011.8
С 1 400 м туман ?/? +10.0 +10.0 100 +8 +8 1011.8
С 1 800 м туман ?/? +10.0 +10.0 100 +8 +8 1012.1
С 1 400 м туман ?/? +9.4 +9.4 100 +7 +7 1012.1
С 1 400 м туман ?/? +9.4 +9.4 100 +7 +7 1013.6 1012.8
С 1 1 км дымка ?/? +9.4 +9.4 100 +7 +7 1012.5
С 1 800 м туман ?/? +9.4 +9.4 100 +7 +7 1014.5 1013.5 +9.4 +10.0 0.3 0.8
С 2 400 м туман ?/? +9.4 +9.4 100 +6 +6 1013.8
С 1 400 м туман ?/? +9.4 +9.4 100 +7 +7 1015.3 1014.2
С 1 400 м туман ?/? +10.0 +10.0 100 +8 +8 1015.8 1014.8
С 1 800 м туман ?/? +10.6 +10.6 100 +9 +9 1014.5
штиль 0 800 м туман ?/? +10.6 +10.6 100 +10 +10 1015.8 1014.8
штиль 0 800 м туман ?/? +10.6 +10.6 100 +10 +10 1015.2
З 1 2 км дымка 10/10 60 м +11.0 +11.0 100 +10 +10 1015.5
штиль 0 4 км дымка 10/10 60 м +11.1 +11.1 100 +10 +10 1016.4 1015.5
З 1 6 км дымка 10/10 120 м +11.1 +11.1 100 +10 +10 1015.5
штиль 0 13 км 10/10 120 м +11.1 +11.1 100 +10 +10 1015.9 1014.8
ЮВ 1 11 км 10/10 90 м +11.7 +11.7 100 +10 +10 1014.8 1013.8 +9.4 +11.7
Ю 2 6 км дымка 10/10 90 м +12.2 +12.2 100 +10 +10 1014.2 1013.1
ЮЗ 1 16 км 10/10 120 м +12.8 +12.8 100 +11 +11 1014.2 1013.1
Ю 1 16 км 10/10 150 м +12.8 +12.2 96 +11 +11 1013.1
ЮЗ 2 16 км 10/10 180 м +12.8 +12.2 96 +11 +11 1014.4 1013.5
Ю 1 16 км 10/10 300 м +12.8 +12.2 96 +12 +12 1013.8
Ю 1 16 км 10/5 300 м
[Ac]
+12.8 +12.2 96 +11 +11 1014.5 1013.5
Ю 1 16 км 8/0 3300 м
[Ac]
+12.8 +12.2 96 +12 +12 1014.5 1013.5
Местоположение метеостанции Norfolk International Airport: широта 36.9036 долгота -76.1919 высота над уровнем моря 8 м.
В архиве по умолчанию представлена погода в Норфолке за последние 1-2 суток. Обновление информации о фактической погоде в базе происходит ежечасно! Архивные данные за месяц целиком и за предыдущие месяцы Вы можете получить, выбрав интересующий диапазон дат из раскрывающегося списка и нажав кнопку "Ввод!".
Внимание! Архив погоды МЕТАР в базе сайта по станциям, не включенным в климатический монитор, хранится не более 60 дней. Нет смысла пытаться выбрать более раннюю дату.
*Определитесь, кто Вы:
Внимание! Время в таблицах - местное (без учета летнего времени). Для получения всемирного времени необходимо вычесть поправку, которая равна -5 ч.
Смотрите также архив погоды в соседних городах и на ближайших метеорологических станциях:
Партнеры нашего сайта:      
Пояснения к столбцам:
  • Ветер - указаны скорость ветра в м/с - средняя за 10 мин, порывы в срок и между сроками (в фигурных скобках) и направление, откуда дует ветер: С - северный,
  • СВ - северо-восточный, В - восточный, ЮВ - юго-восточный, Ю - южный, ЮЗ - юго-западный, З - западный, СЗ - северо-западный.
  • Видимость - горизонтальная дальность видимости в метрах или километрах. При видимости от 1 до 10 км при отсутствии осадков обычно наблюдается дымка, при ухудшении видимости до 1 км и менее - туман. В сухую погоду видимость может ухудшаться дымом, пылью или мглою.
  • Явления - указаны атмосферные явления, наблюдавшиеся в срок или в последний час перед сроком; фигурными скобками обозначены явления, наблюдавшиеся между сроками (за 1-3 часа до срока); квадратными скобками обозначены град или гололедные отложения с указанием их диаметра в мм.
  • Облачность - указаны через наклонную черту общая и нижняя облачность в баллах и высота нижней границы облаков в метрах; квадратными скобками обозначены формы облаков: Ci - перистые, Cs - перисто-слоистые, Cc - перисто-кучевые, Ac - высококучевые, As - высокослоистые, Sc - слоисто-кучевые, Ns - слоисто-дождевые, Cu - кучевые, Cb - кучево-дождевые. Подробнее классификацию облаков см. в Атласе облаков (PDF).
  • T - Температура воздуха - температура, измеренная на высоте 2 м над землей.
  • Td - Температура точки росы - температура, при понижении до которой содержащийся в воздухе водяной пар достигнет насыщения.
  • f - Относительная влажность воздуха - влажноcть воздуха, измеренная на высоте 2 м над землей.
  • Te - Эффективная температура - температура, которую ощущает одетый по сезону человек в тени. Характеристика душности погоды. При расчете учитывается влияние влажности воздуха и скорости ветра на теплоощущения человека.
  • Tes - Эффективная температура на солнце - температура, которую ощущает человек, с поправкой на солнечный нагрев. Характеристика знойности погоды. Зависит от высоты солнца над горизонтом, облачности и скорости ветра. Ночью, в пасмурную погоду, а также при ветре 12 м/с и более поправка равна нулю.
  • P - Атмосферное давление - приведенное к уровню моря атмосферное давление.
  • Po - Атмосферное давление - измеренное на уровне метеостанции атмосферное давление.
  • Tmin - Минимальная температура - минимум температуры воздуха на высоте 2 м над землей.
  • Tmax - Максимальная температура - максимум температуры воздуха на высоте 2 м над землей.
  • R - Количество осадков - Количество выпавших осадков за период времени, мм. При наведении курсора мыши на число - период времени, за который выпало указанное количество осадков.
  • R24 - Количество осадков - Количество выпавших осадков за 24 часа, мм.
  • S - Снежный покров - Высота снежного покрова, см. При наведении курсора мыши на число - состояние снежного покрова и степень покрытия местности в баллах.